Regional Weather Roundup
Issued by NWS New Orleans/Baton Rouge, LA

Home | Current Version | Previous Version | Text Only | Print | Product List | Glossary Off
Versions: 1 2 3 4 5 6 7 8 9 10 11 12 13 14 15 16 17 18 19 20 21 22 23 24 25 26 27 28 29 30 31 32 33 34 35 36 37 38 39 40 41 42 43 44 45 46 47 48 49 50

689
ASUS44 KLIX 210001
RWRLIX
NEW ORLEANS REGIONAL WEATHER ROUNDUP
NATIONAL WEATHER SERVICE NEW ORLEANS LA
700 PM CDT MON OCT 20 2014

NOTE: "FAIR" INDICATES FEW OR NO CLOUDS BELOW 12,000 FEET WITH NO
      SIGNIFICANT WEATHER AND/OR OBSTRUCTIONS TO VISIBILITY.
      SKY/WX - SKY CONDITION AND SIGNIFICANT WEATHER.
      TMP - AIR TEMPERATURE.     DP    - DEWPOINT TEMPERATURE.
      RH  - RELATIVE HUMIDITY.   PRES  - PRESSURE.
      HI  - HEAT INDEX.          WCI   - WIND CHILL INDEX.

*  THESE STATIONS ARE NOT NWS OR FAA STATIONS AND ARE NOT UNDER
   NWS QUALITY CONTROL.

LAZ038-040-048-061>063-065>067-069-210100-
SOUTHEAST LOUISIANA

CITY           SKY/WX    TMP DP  RH WIND       PRES   REMARKS
N.O. AUDUBON   NOT AVBL
N.O. INTL ARPT PTCLDY    70  54  56 N3        30.00R
6HR MIN TEMP:  69; 6HR MAX TEMP:  79;

N.O. LAKEFRONT PTCLDY    73  55  53 NW8       30.01R
6HR MIN TEMP:  73; 6HR MAX TEMP:  79;

N.O. DOWNTOWN*   N/A     73  52  46 N3        30.01R
6HR MIN TEMP:  73; 6HR MAX TEMP:  79;

SLIDELL        PTCLDY    63  57  81 CALM      30.00R
6HR MIN TEMP:  63; 6HR MAX TEMP:  80;

BATON ROUGE    CLEAR     65  58  78 CALM      30.01R
6HR MIN TEMP:  65; 6HR MAX TEMP:  78;

BOOTHVILLE     PTCLDY    72  66  81 NE6       30.00R
6HR MIN TEMP:  72; 6HR MAX TEMP:  79;

BELLE CHASSE   PTCLDY    66  57  72 N5        30.00R
6HR MIN TEMP:  64; 6HR MAX TEMP:  80;

BOGALUSA*        N/A     64  52  64 CALM      30.02S
6HR MIN TEMP:  63; 6HR MAX TEMP:  80;

NEW ROADS*       N/A     67  56  69 N3        30.02R
6HR MIN TEMP:  67; 6HR MAX TEMP:  77;

GONZALES*        N/A     64  62  93 CALM      30.01R
6HR MIN TEMP:  64; 6HR MAX TEMP:  80;

HAMMOND*       NOT AVBL
HOUMA*         CLEAR     70  55  60 N6        29.99
PORT FOURCHON* CLEAR     73  66  78 NE10      30.02S

$$

MSZ070-080>082-210100-
SOUTHERN MISSISSIPPI

CITY           SKY/WX    TMP DP  RH WIND       PRES   REMARKS
MCCOMB         MOCLDY    64  53  67 CALM      30.02R
6HR MIN TEMP:  64; 6HR MAX TEMP:  76;

GULFPORT       PTCLDY    67  54  63 CALM      29.99R
6HR MIN TEMP:  67; 6HR MAX TEMP:  80;

BILOXI         PTCLDY    71  57  61 CALM      30.00R
6HR MIN TEMP:  71; 6HR MAX TEMP:  80;

PASCAGOULA     CLEAR     60  55  83 CALM      30.00R
6HR MIN TEMP:  59; 6HR MAX TEMP:  81;

STENNIS ARPT*  CLEAR     63  55  77 CALM      30.01R

$$

COASTAL OBSERVATIONS
LAKE AND NEARSHORE STATIONS

STATION/POSITION TIME  TEMP    WIND        PRES    WAVE
                       AIR SEA DIR/SP/G            HT/PER
                 (UTC) (F)     (DEG/KT/KT) (MB)    (FT/S)
PASCAGOULA       2300   71     300/  6/  7 1015.1
WAVELAND YACHT   2300   72     250/  3/  3 1015.1
GRAND ISLE       2300   74 78   70/  7/ 11 1016.1
SOUTHWEST PASS   2300   77 85              1015.4
NEW CANAL        2300   74 73  360/  5/  6 1016.2
SHELL BEACH      2300   74 70   20/  4/  5 1015.5

OFFSHORE STATIONS

STATION/POSITION TIME  TEMP    WIND        PRES    WAVE
                       AIR SEA DIR/SP/G            HT/PER
                 (UTC) (F)     (DEG/KT/KT) (MB)    (FT/S)

$$




USA.gov is the U.S. government's official web portal to all federal, state and local government web resources and services.